Starlink 3114

operational
NORAD ID: 49426 Int'l Des: 2021-104 Owner: SPXS Country: US Constellation: starlink
LEOCIRCULAR

Über Starlink 3114

Beschreibung wird geladen...

Live-Position

3D-Globus wird geladen...

Nächste Überflüge

Höhenverlauf

Altitude vs Time

uPlot chart will show altitude changes over time

Zweizeiliger Elementsatz

1 49426U 21104U 25352.07472231 -.00000663 00000-0 -23595-4 0 9991
2 49426 53.2165 235.5047 0001395 90.8611 269.2541 15.08841063226306
Epoch: 18. Dez. 2025 • Age: 13 hours

Aktueller Status

Höhe 542.1 km
Geschwindigkeit 7.59 km/s
Subsatellitenpunkt -7.35°S, 76.9°W
Startdatum 13. Nov. 2021
Alter 4 years
Typ internet

Technische Details

Klassifizierung Payload
Masse 290.00 kg
Trockenmasse 270.00 kg
Gesamtmasse 290.00 kg
Länge 0.20 m
Durchmesser 2.80 m
Spannweite 9.00 m
Form Box + pan
Hersteller SPXS
Bus-Typ Starlink
Phasenstatus In Orbit
Besitzer/Staat SPXS/US

Große Konstellationen

Loading constellations...